Dewpoint
-9 -8 -5 -2 -3 -5 -3 -5 -6 -7 0 4 6 3 9 12 12 13 10 13 13 12 13 13 12 12 9 7 8 7 8 7 1 -10 -11 -12 -11 -11 0 4 2 -2 -5 -3 -2 3 5 7 9
-7 -4 1 1 -3 -3 -4 -7 -7 -8 -3 4 5 6 11 13 11 11 12 11 13 11 11 13 13 12 10 11 9 8 9 7 -5 -13 -12 -10 -8 -5 2 2 -1 -4 -5 -6 -3 4 6 6 7
-4 0 2 -2 -4 -3 -4 -7 -8 5 4 5 5 9 10 11 11 11 7 10 12 9 8 9 11 10 8 7 10 9 8 3 -7 -9 -6 1 -4 0 1 -0 -5 -5 -5 -5 -1 6 7 6 7
-5 -3 -2 -5 -4 -5 -5 -6 -7 5 5 5 7 9 7 12 13 12 11 14 12 9 11 9 6 9 9 9 9 9 8 -1 -11 -3 7 2 0 0 0 -4 -4 -4 -3 -3 -0 6 6 6 6
-1 -0 -5 -5 -5 -6 -8 -8 4 6 7 7 6 8 8 6 7 11 11 12 13 12 7 9 9 10 12 11 12 11 8 -5 -10 9 10 4 1 0 -4 -4 -3 -3 -3 -6 1 5 4 5 6
-1 -4 -3 -2 -3 -6 -9 -1 6 6 7 6 7 8 5 3 7 9 10 12 13 12 12 13 13 9 9 13 11 11 11 5 1 9 10 4 2 -1 -3 -2 -2 -3 -6 -8 -4 4 3 5 6
-2 -5 -4 -5 -6 -8 -7 2 5 5 7 6 5 6 3 3 5 11 13 11 13 13 12 11 11 9 9 7 12 8 2 -9 4 9 9 7 2 -2 -1 -1 -2 -4 -7 -9 -9 3 3 3 4
-5 -6 -5 -6 -7 -7 -9 0 5 5 8 6 6 8 8 7 5 8 13 13 13 12 11 11 12 10 8 7 9 8 5 2 6 9 9 8 2 -0 -0 -0 -1 -4 -7 -9 -11 -1 2 3 3
-5 -5 -4 -7 -7 -8 -7 -3 8 8 8 9 9 11 11 9 7 7 12 13 13 12 12 11 11 10 8 7 8 7 8 6 7 8 9 8 2 0 1 1 1 -1 -6 -8 -8 -6 1 2 2
-7 -6 -6 -9 -9 -9 5 3 7 6 5 6 7 8 11 10 8 10 11 12 12 11 11 11 9 9 8 8 9 8 6 7 6 7 7 7 1 1 2 2 3 3 -0 -6 -7 -7 -4 -0 -0
-7 -5 -7 -8 -9 -5 4 6 7 5 6 6 5 9 11 11 10 10 11 11 11 11 11 10 9 9 8 9 9 8 6 4 3 5 7 6 1 1 2 3 3 4 3 2 -1 -3 -3 -3 -4
-6 -7 -7 -8 -6 -1 3 5 5 6 4 5 8 8 11 11 10 10 9 10 11 11 10 11 9 9 9 9 8 6 4 7 7 6 6 4 1 2 3 3 3 3 4 3 3 2 0 -2 -3
-6 -7 -6 -6 -4 1 5 7 5 6 6 10 10 10 10 10 10 9 9 10 10 10 11 10 10 10 9 8 7 4 9 7 7 6 4 2 1 2 1 2 3 3 4 4 4 5 4 1 -2
-5 -4 -4 -5 -3 -1 2 6 4 4 7 10 11 10 10 9 9 9 9 9 10 10 10 11 10 10 9 7 6 4 7 5 5 5 2 0 1 -0 1 0 1 3 4 4 5 5 5 3 0
-5 -3 -4 -6 -3 -2 2 5 4 3 7 10 10 11 11 11 10 8 9 8 9 10 9 10 10 9 9 8 7 3 4 5 5 4 3 1 1 1 -0 0 1 3 4 4 5 5 5 5 5
-3 -3 -3 -5 -2 -2 -1 1 5 4 9 9 9 10 9 10 9 8 8 8 9 9 9 9 9 9 7 6 6 7 6 5 5 4 4 5 4 3 1 1 4 4 4 5 6 5 6 5 5
-2 -1 -1 -2 -2 -1 1 3 6 4 6 8 9 10 9 10 9 7 7 8 8 8 8 9 9 9 5 5 8 8 8 6 4 3 2 1 1 3 2 5 5 4 4 6 7 6 6 6 5
-1 -1 -3 -3 -2 1 3 4 6 5 5 5 5 8 10 9 9 7 6 7 8 8 8 9 9 8 6 4 4 6 8 5 3 2 1 1 2 2 3 3 2 1 6 7 7 6 6 6 6
-2 -1 -1 -3 -1 2 3 3 5 6 6 6 4 6 9 9 9 8 7 7 7 7 7 8 8 7 6 4 5 5 4 4 3 1 1 5 4 2 1 -1 1 4 4 5 6 7 6 6 6
-2 -1 -1 -4 -1 1 -0 -0 1 5 6 7 7 7 9 9 9 8 7 6 6 7 7 7 7 6 5 3 4 5 4 3 2 2 4 6 6 6 2 0 2 0 2 7 7 7 7 7 6
-2 -1 -1 -2 -4 -2 -1 -0 5 5 6 6 6 7 9 9 8 8 7 6 6 6 6 7 6 6 5 4 4 5 4 4 2 3 4 4 3 4 5 4 4 2 5 6 6 7 7 8 8
0 -3 -2 -1 0 2 -2 2 2 6 6 5 5 7 9 9 8 8 7 4 5 5 5 6 6 6 5 5 6 6 4 3 3 1 3 2 0 2 3 4 3 4 5 5 5 7 8 8 8
-1 -2 -1 -1 0 -0 -0 0 -1 2 5 5 5 6 8 9 8 8 7 4 1 4 4 5 6 6 6 5 3 3 3 2 1 2 2 -1 0 4 4 5 4 3 5 6 6 7 8 8 8
-3 -2 -1 0 1 4 1 1 0 -0 -0 1 4 5 7 8 9 8 8 6 1 2 3 3 4 4 4 3 3 4 4 4 3 1 0 -1 -2 2 3 4 5 5 6 6 6 7 8 8 8
-2 -0 3 5 5 5 1 4 3 -1 -2 0 6 6 6 8 8 8 8 7 5 1 1 2 2 2 2 4 5 4 4 4 4 3 2 2 4 5 5 6 6 7 8 8 8 8 9 8 8
-0 0 5 6 7 5 4 6 3 -1 -1 -1 5 6 6 8 8 8 8 7 6 5 3 2 1 1 1 3 4 5 6 7 7 6 6 6 6 6 5 6 7 8 8 8 8 9 8 8 9
-0 2 0 4 6 7 5 4 1 -0 -1 -2 1 6 6 7 8 8 7 7 7 6 5 5 3 1 1 1 2 5 6 7 8 8 8 7 7 6 6 6 7 8 8 8 8 8 8 8 8
-2 -1 3 5 7 8 6 5 5 1 -2 -4 -4 3 6 6 5 7 8 8 8 7 6 6 6 5 4 3 2 6 6 6 7 7 7 8 8 7 8 7 8 8 8 9 8 8 7 8 8
-1 -0 -0 3 6 8 7 5 2 2 -2 -1 -4 -1 -1 3 5 5 8 8 8 8 8 7 7 7 7 6 5 6 7 7 8 8 9 10 9 8 5 7 6 8 8 9 8 8 7 7 7
-4 -1 0 4 6 6 6 5 -0 1 0 -2 -4 -2 -0 -0 1 3 6 6 8 8 8 8 8 8 8 8 8 8 8 9 8 9 9 8 5 7 9 7 7 10 9 8 8 7 7 7 6
Wind_Speed
1 2 2 2 4 5 4 6 4 9 7 3 5 7 10 8 4 5 7 8 16 22 20 21 24 29 28 25 27 26 25 23 22 25 28 29 29 30 31 30 29 28 28 28 28 29 27 25 24
2 2 2 2 4 1 5 7 9 7 12 3 7 7 9 5 8 10 7 4 12 18 17 21 27 31 30 22 27 28 26 24 23 27 30 31 32 33 32 30 29 28 28 28 28 27 25 22 21
1 2 0 3 3 4 5 5 6 7 15 2 5 10 4 4 2 6 4 4 21 24 22 23 26 24 30 33 30 31 29 26 26 29 31 33 34 34 32 32 29 28 29 29 28 28 27 20 19
2 1 1 3 7 10 6 16 20 10 5 10 3 6 2 2 3 3 5 6 11 25 24 31 28 35 34 47 41 31 28 25 29 29 30 32 34 34 32 31 30 28 28 28 29 29 23 18 17
1 1 3 2 7 8 11 21 2 7 6 8 1 3 3 6 7 7 6 6 8 12 15 14 22 26 33 38 44 39 34 28 31 31 31 32 34 34 33 30 30 28 27 28 30 28 21 17 16
2 2 2 3 7 8 7 9 11 11 6 4 5 5 4 9 9 7 5 6 8 11 16 21 27 12 29 40 44 41 36 30 34 32 31 33 35 34 32 30 28 27 26 25 27 27 22 17 16
5 3 5 4 10 9 4 14 10 6 6 2 8 4 2 4 9 8 3 6 10 13 14 15 23 14 26 49 42 38 38 41 38 34 33 34 34 33 32 29 28 27 25 24 25 27 23 18 12
3 4 3 5 5 9 9 4 13 8 2 7 2 3 2 10 7 8 4 2 9 11 18 22 19 21 23 19 15 27 32 40 39 36 34 33 34 32 30 28 28 26 25 24 24 25 24 19 13
4 2 4 7 3 6 10 4 7 10 9 5 1 2 4 9 9 6 3 3 6 12 15 19 16 12 3 9 17 17 22 35 38 36 33 33 33 32 29 28 27 25 24 24 24 23 22 19 12
4 3 7 7 3 5 5 5 14 5 2 1 3 0 2 1 5 8 7 3 8 9 8 11 10 13 17 17 21 35 37 28 33 34 34 32 32 32 30 27 26 25 23 21 20 19 19 18 11
4 6 12 21 14 1 10 5 6 9 0 5 3 9 6 5 5 6 10 11 11 9 10 10 15 16 19 22 33 38 42 35 32 32 32 32 32 31 30 27 24 23 20 18 15 14 14 13 11
2 13 19 22 9 1 7 13 5 5 6 5 9 12 10 9 10 11 13 13 13 13 13 13 17 19 28 36 39 36 39 41 41 38 33 30 32 30 28 25 22 19 17 15 13 11 10 9 10
5 8 13 21 8 10 19 8 8 6 12 8 12 13 15 11 10 14 16 15 16 16 22 18 20 22 28 40 39 42 39 39 39 39 37 32 31 27 23 22 20 17 16 14 11 10 7 6 8
9 12 16 13 9 4 5 4 2 5 17 13 14 14 12 14 17 16 16 16 16 20 23 25 25 30 33 37 38 41 37 37 36 36 36 33 29 25 24 20 17 16 14 12 8 8 6 7 7
12 6 9 9 4 2 14 3 6 15 17 20 14 15 12 15 14 10 14 15 17 20 25 35 29 30 33 39 42 43 40 39 38 36 33 32 26 23 20 17 17 15 12 10 8 7 8 7 5
5 2 3 4 2 7 9 5 6 17 21 15 9 16 15 14 10 7 13 14 17 19 19 26 29 31 33 38 46 43 42 40 38 37 31 27 22 18 18 16 14 13 12 9 6 9 8 6 5
3 5 5 9 7 3 3 4 6 20 18 16 14 17 15 12 12 9 10 16 17 16 18 28 30 31 38 40 44 37 37 40 40 35 29 28 23 18 17 15 15 13 11 10 11 12 11 8 9
6 4 3 6 6 3 1 4 4 22 19 19 22 14 17 17 15 10 10 14 18 17 17 27 34 31 35 38 44 36 36 39 39 35 33 34 21 19 18 16 14 14 15 16 17 16 14 13 14
6 7 8 11 10 6 8 7 11 16 13 13 18 19 23 22 17 13 12 15 18 20 22 24 34 31 37 37 41 42 42 38 35 38 41 23 18 20 19 19 17 18 21 19 18 19 19 19 19
9 13 14 10 4 7 7 8 7 11 13 20 22 19 28 26 23 19 17 20 22 25 29 31 33 31 35 35 41 43 43 37 41 39 32 24 23 23 22 21 21 21 23 22 22 23 22 21 22
14 13 13 9 5 4 2 5 3 7 6 14 23 30 30 35 31 28 24 25 26 28 33 35 35 36 39 42 38 36 40 35 44 45 34 27 27 24 21 21 21 24 27 25 23 24 23 23 23
11 11 9 5 2 3 3 5 5 7 16 10 20 29 34 37 36 33 29 29 31 30 32 36 37 38 39 39 37 39 41 42 48 46 36 30 30 28 26 24 24 27 26 25 25 24 25 26 26
13 16 8 6 3 2 3 1 6 4 10 10 15 29 37 43 43 42 37 32 30 32 34 35 36 37 40 41 39 41 40 40 42 42 37 35 33 30 30 29 28 29 29 31 29 28 29 27 27
16 5 3 3 2 3 5 5 4 6 10 14 23 34 37 42 46 44 41 35 36 34 34 37 39 42 45 43 41 39 36 36 37 39 37 34 33 33 34 33 31 30 30 31 32 31 29 28 27
7 4 2 3 2 7 5 3 7 10 13 12 22 37 41 45 42 47 45 44 40 41 41 40 43 47 47 43 40 39 37 35 35 34 35 35 35 34 33 32 33 32 28 33 33 34 32 30 29
7 9 5 5 4 5 4 5 5 6 8 10 32 41 40 41 48 47 50 46 45 45 46 46 49 50 48 44 42 40 38 38 39 37 36 36 35 31 26 26 29 27 28 35 31 32 32 29 28
5 4 8 5 2 2 4 7 7 7 1 2 16 25 33 39 46 51 50 48 47 49 51 52 51 53 50 46 42 43 43 44 42 40 41 41 38 33 30 28 31 31 31 19 21 20 21 22 24
11 6 3 1 3 4 5 5 6 4 1 2 7 20 32 41 44 45 50 51 50 49 52 53 53 53 51 49 47 45 42 43 42 43 44 42 41 33 29 31 31 29 28 19 18 19 17 24 25
3 3 1 5 5 5 2 5 6 9 8 7 6 20 21 28 38 41 42 46 51 52 48 53 54 54 52 50 48 47 44 42 42 41 46 36 34 24 27 33 32 34 25 20 20 22 20 22 22
10 11 9 6 5 4 5 9 3 9 10 5 9 16 21 22 25 30 39 46 47 51 51 52 49 48 44 39 37 39 39 39 41 44 34 27 24 37 35 32 35 31 22 23 22 23 23 20 23
Wind_Direction
264 272 340 25 52 65 274 273 274 279 308 305 38 106 121 38 21 107 84 116 165 164 171 183 184 181 187 187 178 171 168 163 158 152 147 143 141 138 135 131 128 127 124 123 121 119 113 110 111
150 199 29 94 98 43 271 241 238 262 277 156 79 105 46 73 34 136 123 139 176 151 168 178 187 189 182 213 183 176 174 169 162 154 148 144 141 138 136 132 129 127 125 124 123 119 114 109 109
120 203 348 121 119 197 236 240 277 49 46 25 111 67 99 152 121 198 233 173 189 193 205 204 196 207 218 201 194 181 174 166 158 153 148 143 140 137 135 133 130 128 126 125 126 120 115 115 107
115 92 175 90 255 251 243 281 290 174 36 43 95 73 131 123 181 242 282 243 223 227 240 225 226 208 214 223 217 182 171 164 157 152 148 144 139 135 135 133 130 128 127 127 128 127 125 127 116
26 115 49 325 266 266 275 265 287 143 135 36 114 160 208 263 302 290 272 254 246 220 195 197 192 206 205 178 189 177 169 161 157 153 150 146 140 137 136 132 129 128 127 126 129 131 128 132 128
324 89 63 270 268 278 264 163 148 93 140 178 110 145 226 314 293 300 270 231 236 238 192 182 178 46 6 185 187 180 171 168 162 155 153 148 142 138 135 133 130 128 126 127 131 131 115 115 123
152 88 225 250 295 304 278 186 102 122 156 85 147 150 194 303 307 336 350 193 213 214 218 216 151 167 341 353 167 163 157 161 155 156 155 148 141 139 135 133 129 125 124 124 131 137 124 112 128
216 113 280 248 272 288 286 102 103 62 35 128 141 301 321 340 303 324 10 199 189 204 195 198 205 224 302 52 76 133 150 151 155 156 155 148 140 138 135 132 127 123 122 121 127 140 140 132 129
210 50 277 260 261 267 350 114 67 101 130 177 228 256 319 324 278 281 345 168 195 184 199 211 221 230 122 118 160 151 146 153 155 157 155 149 142 140 135 131 125 122 122 125 130 139 146 148 151
129 129 245 226 228 256 25 107 143 141 94 251 140 77 43 28 267 299 292 228 226 264 251 235 214 167 153 158 167 159 152 152 155 157 159 150 145 142 138 134 130 127 130 129 132 139 142 149 159
196 224 273 277 272 254 130 86 152 134 262 219 220 155 144 219 234 266 257 236 224 200 221 206 174 174 172 164 161 157 159 154 159 165 157 155 150 147 144 139 135 132 132 137 134 129 132 129 150
235 261 261 277 246 41 137 135 127 213 229 194 156 170 169 179 228 257 252 239 226 223 229 204 187 177 168 168 172 160 154 165 161 162 163 161 155 152 148 144 138 139 141 137 131 132 134 126 144
202 267 307 309 260 129 147 173 167 223 193 172 155 163 159 189 226 249 253 234 223 218 208 214 204 191 175 169 165 160 165 163 161 161 163 166 159 152 150 153 153 152 156 142 144 129 130 144 144
296 314 307 310 254 201 120 134 128 171 166 180 170 157 175 195 213 228 228 229 219 213 207 206 193 179 178 173 168 166 163 162 163 167 167 163 157 163 162 160 161 172 171 153 145 138 160 174 159
318 337 321 295 303 168 129 100 233 175 186 182 180 182 195 201 215 243 211 224 225 215 192 188 195 180 177 178 177 171 167 169 167 163 157 159 164 170 170 169 174 176 180 178 168 181 182 179 173
332 342 338 303 288 227 169 248 227 189 181 170 187 190 207 201 218 220 200 212 216 215 197 189 181 176 174 170 165 166 168 166 160 160 161 159 163 173 178 179 174 185 193 194 200 218 215 203 215
311 253 238 302 230 190 142 242 230 200 197 173 178 176 194 204 213 207 200 200 212 214 196 189 187 183 179 176 169 164 168 167 165 165 168 169 181 184 186 187 193 201 211 212 231 234 230 239 242
216 228 308 294 288 155 229 255 222 204 202 198 192 162 186 200 226 206 198 188 198 201 205 197 184 179 177 176 181 174 174 174 177 171 173 181 196 197 198 206 214 222 229 227 237 241 235 239 239
299 301 275 279 254 153 228 184 224 212 208 199 204 196 190 198 216 209 203 190 190 191 187 185 177 179 178 186 184 185 183 182 186 179 185 195 205 211 213 218 221 223 226 232 241 247 243 236 231
248 265 275 281 246 175 234 244 214 182 215 197 200 202 191 193 202 208 204 194 190 185 189 183 184 185 188 188 186 187 190 191 192 194 196 203 210 218 222 231 234 236 234 234 241 243 245 239 236
250 249 263 245 292 266 177 307 201 216 196 209 214 210 198 194 200 201 201 198 191 189 190 193 194 191 189 189 197 196 200 204 196 196 205 210 217 223 227 232 239 236 236 239 250 252 248 245 245
256 245 241 266 129 243 111 272 228 211 214 189 212 197 195 202 206 202 199 200 199 193 191 193 194 197 197 195 198 198 194 196 200 203 207 211 223 226 233 238 242 239 246 249 258 259 257 249 252
246 252 247 241 222 134 292 71 265 179 227 219 203 199 199 202 206 204 201 204 201 201 195 195 198 199 195 193 192 189 192 197 199 205 210 222 225 230 237 240 242 240 245 251 255 255 251 244 254
246 220 43 34 59 297 245 180 254 226 212 205 199 204 198 201 207 208 205 203 200 202 199 194 193 191 187 188 193 198 203 204 207 214 222 227 230 236 240 241 243 247 252 251 253 254 249 259 266
208 102 306 326 332 247 256 255 232 239 240 192 185 197 202 200 198 204 206 206 202 201 199 197 192 189 191 196 202 206 209 212 216 220 224 227 230 233 238 241 244 247 253 254 254 248 252 262 268
193 169 172 213 215 257 297 246 255 241 262 198 187 191 195 195 198 203 210 211 208 207 204 202 200 197 201 208 211 212 216 220 226 229 232 232 232 233 242 246 246 247 251 252 254 254 257 260 256
203 166 190 148 129 52 239 287 310 300 189 158 187 198 194 193 198 205 207 216 215 212 211 210 209 210 212 214 216 219 222 226 232 237 243 246 244 241 245 255 252 254 260 244 243 241 246 254 252
189 172 109 9 154 249 271 260 238 303 156 324 173 193 208 209 206 213 210 214 221 222 220 216 217 217 217 218 221 222 224 231 237 244 247 250 242 243 241 247 250 247 253 232 236 237 247 254 249
154 169 119 145 153 182 276 263 225 216 204 201 211 182 199 210 219 215 218 224 224 226 222 223 221 222 223 223 224 224 228 233 241 246 250 252 228 244 236 250 249 253 228 236 239 235 253 250 242
207 198 178 186 206 192 173 248 262 230 238 277 220 193 180 187 205 224 228 231 228 227 223 228 230 226 224 227 232 234 235 238 244 247 263 274 248 239 241 252 246 249 231 239 231 241 246 237 232
Height
1511 1513 1515 1517 1529 1533 1534 1520 1508 1502 1500 1491 1491 1489 1495 1501 1502 1512 1507 1507 1503 1506 1511 1514 1516 1516 1518 1527 1526 1527 1530 1531 1530 1528 1526 1527 1531 1535 1541 1545 1545 1548 1551 1553 1555 1556 1556 1557 1558
1511 1513 1516 1517 1534 1541 1535 1507 1506 1502 1496 1492 1493 1494 1494 1505 1504 1505 1504 1504 1508 1506 1509 1510 1514 1512 1514 1519 1526 1526 1529 1529 1529 1528 1527 1528 1531 1534 1540 1545 1548 1551 1553 1556 1558 1558 1558 1559 1560
1511 1513 1517 1520 1535 1538 1529 1501 1499 1501 1495 1493 1493 1495 1497 1500 1500 1501 1503 1505 1509 1505 1506 1508 1510 1516 1509 1509 1523 1525 1526 1528 1530 1529 1527 1529 1532 1534 1540 1544 1549 1554 1555 1557 1560 1561 1561 1561 1563
1512 1515 1518 1525 1527 1514 1510 1498 1495 1498 1497 1495 1494 1498 1499 1498 1498 1498 1499 1499 1501 1500 1498 1501 1503 1510 1511 1510 1514 1520 1523 1526 1527 1532 1533 1533 1533 1536 1543 1546 1549 1554 1558 1559 1561 1563 1564 1563 1566
1512 1514 1525 1527 1520 1510 1500 1495 1494 1497 1496 1496 1493 1497 1496 1495 1496 1498 1498 1496 1493 1494 1494 1498 1507 1512 1506 1502 1508 1511 1517 1524 1525 1533 1534 1536 1535 1538 1544 1548 1550 1555 1559 1562 1563 1565 1566 1567 1568
1512 1515 1529 1530 1516 1503 1497 1492 1495 1491 1493 1493 1492 1492 1491 1489 1492 1494 1493 1494 1492 1493 1494 1494 1498 1498 1483 1499 1506 1509 1512 1521 1528 1533 1536 1537 1536 1540 1545 1550 1552 1556 1560 1564 1566 1568 1569 1568 1570
1513 1520 1525 1521 1516 1505 1493 1490 1490 1490 1491 1491 1489 1489 1487 1485 1490 1491 1490 1491 1489 1490 1491 1494 1488 1495 1498 1496 1487 1503 1506 1516 1525 1534 1538 1538 1538 1543 1546 1551 1554 1557 1562 1565 1567 1570 1572 1571 1571
1509 1513 1517 1518 1513 1508 1487 1489 1493 1494 1495 1493 1493 1492 1490 1486 1486 1491 1492 1489 1490 1487 1488 1491 1491 1500 1487 1498 1498 1507 1513 1517 1526 1532 1536 1539 1538 1546 1549 1554 1555 1558 1563 1566 1569 1571 1572 1573 1573
1509 1519 1523 1515 1504 1496 1489 1488 1493 1493 1492 1492 1493 1490 1487 1485 1484 1487 1490 1492 1491 1491 1487 1485 1489 1493 1493 1492 1514 1508 1521 1525 1525 1530 1536 1539 1540 1546 1552 1557 1557 1559 1564 1568 1570 1572 1574 1574 1575
1504 1518 1511 1498 1492 1493 1492 1486 1489 1492 1490 1488 1489 1488 1486 1484 1482 1483 1485 1488 1491 1491 1492 1491 1488 1490 1493 1498 1504 1507 1517 1526 1525 1529 1534 1538 1544 1547 1553 1558 1558 1560 1563 1569 1571 1573 1575 1577 1577
1502 1508 1496 1492 1493 1487 1488 1489 1490 1489 1491 1485 1483 1484 1483 1486 1485 1485 1489 1490 1493 1494 1494 1494 1493 1495 1496 1498 1505 1514 1508 1518 1526 1533 1536 1541 1546 1550 1553 1557 1558 1561 1564 1569 1572 1574 1577 1579 1579
1500 1495 1493 1487 1487 1483 1485 1486 1486 1485 1482 1480 1480 1479 1481 1485 1487 1485 1490 1493 1493 1493 1493 1494 1497 1498 1501 1506 1512 1514 1513 1520 1522 1529 1538 1543 1547 1551 1554 1556 1558 1561 1566 1569 1572 1575 1578 1579 1580
1494 1491 1488 1486 1482 1480 1482 1482 1481 1482 1481 1481 1481 1480 1478 1482 1487 1488 1487 1491 1493 1493 1493 1493 1495 1498 1502 1506 1510 1512 1514 1516 1523 1530 1538 1544 1548 1553 1555 1556 1558 1561 1567 1569 1572 1574 1577 1579 1579
1488 1488 1484 1481 1479 1478 1478 1482 1479 1481 1480 1480 1479 1478 1478 1479 1484 1486 1486 1488 1491 1491 1492 1491 1495 1496 1501 1505 1506 1509 1514 1521 1528 1534 1538 1543 1548 1552 1554 1556 1559 1563 1566 1567 1571 1574 1576 1579 1580
1487 1487 1481 1475 1474 1475 1476 1485 1482 1476 1477 1477 1472 1476 1478 1478 1482 1483 1485 1485 1487 1490 1490 1489 1492 1495 1500 1504 1507 1513 1518 1524 1528 1535 1538 1543 1548 1552 1555 1557 1559 1563 1565 1567 1571 1573 1576 1578 1579
1488 1487 1493 1476 1474 1472 1474 1485 1477 1475 1475 1474 1475 1476 1477 1480 1483 1483 1485 1487 1488 1491 1492 1493 1493 1496 1501 1507 1511 1516 1518 1522 1528 1535 1539 1542 1547 1551 1555 1556 1559 1562 1565 1566 1569 1572 1574 1575 1577
1491 1499 1492 1483 1469 1471 1474 1479 1474 1475 1475 1476 1478 1476 1476 1481 1482 1483 1485 1486 1489 1491 1492 1494 1496 1500 1505 1511 1514 1518 1522 1526 1531 1536 1540 1543 1547 1551 1552 1555 1558 1560 1563 1564 1567 1570 1571 1573 1575
1497 1492 1485 1488 1474 1471 1474 1477 1474 1471 1473 1473 1476 1475 1476 1479 1482 1482 1484 1486 1490 1492 1493 1494 1496 1500 1506 1512 1516 1520 1524 1525 1531 1534 1539 1543 1546 1549 1551 1553 1555 1557 1561 1562 1564 1567 1568 1570 1572
1486 1487 1488 1476 1470 1470 1472 1476 1470 1468 1472 1473 1474 1476 1475 1477 1484 1484 1484 1484 1487 1490 1493 1495 1498 1502 1506 1511 1514 1519 1522 1524 1529 1533 1537 1541 1545 1549 1550 1551 1553 1555 1557 1559 1562 1565 1566 1567 1569
1484 1485 1482 1471 1461 1468 1465 1467 1463 1465 1465 1468 1472 1475 1473 1477 1481 1483 1483 1484 1484 1487 1492 1496 1499 1503 1507 1509 1513 1517 1520 1523 1528 1532 1534 1539 1541 1544 1545 1547 1549 1552 1554 1556 1558 1561 1562 1564 1566
1477 1480 1477 1473 1462 1461 1462 1467 1465 1463 1464 1468 1469 1471 1471 1471 1474 1479 1480 1483 1484 1485 1487 1491 1495 1499 1503 1508 1511 1515 1519 1523 1525 1527 1529 1534 1537 1540 1542 1544 1547 1548 1550 1553 1554 1556 1558 1559 1561
1479 1465 1464 1465 1469 1482 1462 1487 1466 1459 1456 1464 1464 1467 1467 1468 1473 1475 1476 1477 1480 1481 1485 1488 1492 1497 1501 1506 1508 1511 1511 1514 1518 1524 1529 1532 1535 1538 1540 1541 1543 1544 1546 1547 1550 1552 1553 1556 1557
1465 1459 1460 1459 1465 1470 1468 1480 1465 1453 1457 1455 1455 1459 1460 1459 1464 1468 1470 1473 1476 1481 1483 1487 1491 1494 1497 1500 1504 1507 1509 1514 1517 1522 1525 1529 1531 1533 1535 1537 1539 1540 1542 1542 1545 1546 1548 1549 1550
1454 1454 1457 1461 1470 1486 1469 1475 1468 1459 1447 1442 1444 1451 1454 1456 1460 1463 1468 1472 1475 1478 1482 1485 1488 1491 1495 1498 1503 1506 1509 1512 1515 1519 1522 1525 1527 1529 1530 1532 1534 1536 1537 1539 1540 1541 1543 1543 1543
1452 1462 1485 1491 1490 1488 1463 1468 1459 1439 1430 1429 1433 1440 1446 1450 1456 1459 1462 1465 1470 1474 1478 1482 1485 1488 1492 1495 1500 1503 1507 1510 1511 1514 1517 1519 1521 1523 1525 1527 1528 1530 1533 1533 1533 1535 1536 1537 1538
1450 1456 1484 1484 1497 1482 1462 1468 1448 1427 1422 1423 1425 1430 1438 1445 1449 1450 1452 1456 1462 1467 1471 1477 1480 1484 1488 1491 1496 1500 1503 1505 1506 1509 1511 1513 1515 1517 1520 1521 1523 1525 1526 1527 1528 1529 1531 1532 1533
1445 1457 1445 1466 1470 1485 1470 1452 1435 1425 1422 1424 1426 1431 1436 1439 1440 1443 1447 1450 1454 1460 1462 1465 1471 1476 1480 1485 1491 1492 1495 1498 1501 1504 1506 1508 1510 1512 1516 1518 1519 1521 1519 1520 1521 1523 1525 1526 1527
1431 1435 1459 1464 1476 1483 1467 1461 1452 1430 1423 1422 1425 1426 1428 1431 1435 1436 1440 1444 1447 1451 1456 1462 1464 1465 1469 1477 1481 1485 1491 1496 1498 1499 1501 1503 1504 1507 1509 1508 1512 1511 1513 1514 1516 1518 1520 1521 1522
1433 1441 1442 1448 1458 1477 1483 1465 1433 1428 1419 1422 1423 1421 1421 1425 1428 1433 1436 1438 1442 1447 1453 1451 1457 1462 1467 1471 1475 1485 1488 1490 1493 1496 1497 1497 1492 1498 1496 1500 1504 1506 1508 1509 1510 1512 1515 1516 1517
1420 1427 1435 1455 1456 1458 1467 1451 1423 1423 1419 1418 1420 1420 1419 1420 1423 1427 1430 1433 1437 1442 1446 1447 1450 1460 1469 1474 1481 1481 1485 1488 1489 1490 1486 1486 1485 1492 1494 1494 1497 1500 1502 1504 1505 1507 1509 1510 1513